Time,TemperatureF,DewpointF,PressureIn,WindDirection,WindDirectionDegrees,WindSpeedMPH,WindSpeedGustMPH,Humidity,HourlyPrecipIn,Conditions,Clouds,dailyrainin,SolarRadiationWatts/m^2,SoftwareType,DateUTC
2013-01-04 00:04:00,23.5,20.0,30.44,NW,321,0.0,0.0,86,0.00,,,0.02,0,weatherlink.com 1.10,2013-01-04 06:04:00,
2013-01-04 00:19:00,22.8,19.0,30.44,NW,321,0.0,1.0,86,0.00,,,0.02,0,weatherlink.com 1.10,2013-01-04 06:19:00,
2013-01-04 00:34:00,21.9,18.0,30.43,NW,321,0.0,2.0,86,0.00,,,0.02,0,weatherlink.com 1.10,2013-01-04 06:34:00,
2013-01-04 00:49:00,21.8,19.0,30.43,NW,321,0.0,2.0,87,0.00,,,0.02,0,weatherlink.com 1.10,2013-01-04 06:49:00,
2013-01-04 01:04:00,21.6,18.0,30.43,NW,321,0.0,0.0,87,0.00,,,0.02,0,weatherlink.com 1.10,2013-01-04 07:04:00,
2013-01-04 01:19:00,21.1,18.0,30.43,NW,321,0.0,0.0,87,0.00,,,0.02,0,weatherlink.com 1.10,2013-01-04 07:19:00,
2013-01-04 01:34:00,20.3,17.0,30.43,NW,321,0.0,1.0,87,0.00,,,0.02,0,weatherlink.com 1.10,2013-01-04 07:34:00,
2013-01-04 01:49:00,19.7,17.0,30.43,NW,321,0.0,0.0,87,0.00,,,0.02,0,weatherlink.com 1.10,2013-01-04 07:49:00,
2013-01-04 02:04:00,19.1,16.0,30.44,NW,321,0.0,0.0,87,0.00,,,0.02,0,weatherlink.com 1.10,2013-01-04 08:04:00,
2013-01-04 02:19:00,18.6,15.0,30.44,NW,321,0.0,1.0,87,0.00,,,0.02,0,weatherlink.com 1.10,2013-01-04 08:19:00,
2013-01-04 02:34:00,18.2,15.0,30.45,NW,321,0.0,1.0,87,0.00,,,0.02,0,weatherlink.com 1.10,2013-01-04 08:34:00,
2013-01-04 02:49:00,18.1,15.0,30.45,NW,321,0.0,1.0,88,0.00,,,0.02,0,weatherlink.com 1.10,2013-01-04 08:49:00,
2013-01-04 03:04:00,18.0,15.0,30.44,NW,321,1.0,1.0,88,0.00,,,0.02,0,weatherlink.com 1.10,2013-01-04 09:04:00,
2013-01-04 03:19:00,18.2,16.0,30.44,NW,321,0.0,2.0,89,0.00,,,0.02,0,weatherlink.com 1.10,2013-01-04 09:19:00,
2013-01-04 03:35:00,18.6,16.0,30.43,NW,321,0.0,2.0,89,0.00,,,0.02,0,weatherlink.com 1.10,2013-01-04 09:35:00,
2013-01-04 03:50:00,18.9,16.0,30.43,NW,321,1.0,3.0,89,0.00,,,0.02,0,weatherlink.com 1.10,2013-01-04 09:50:00,
2013-01-04 04:05:00,19.3,17.0,30.42,NW,316,0.0,4.0,90,0.00,,,0.02,0,weatherlink.com 1.10,2013-01-04 10:05:00,
2013-01-04 04:20:00,19.3,17.0,30.42,NW,315,0.0,2.0,90,0.00,,,0.02,0,weatherlink.com 1.10,2013-01-04 10:20:00,
2013-01-04 04:35:00,18.8,16.0,30.41,NW,315,0.0,1.0,90,0.00,,,0.02,0,weatherlink.com 1.10,2013-01-04 10:35:00,
2013-01-04 04:50:00,18.0,16.0,30.41,NW,315,0.0,2.0,90,0.00,,,0.02,0,weatherlink.com 1.10,2013-01-04 10:50:00,
2013-01-04 05:05:00,17.7,15.0,30.40,NW,315,0.0,2.0,90,0.00,,,0.02,0,weatherlink.com 1.10,2013-01-04 11:05:00,
2013-01-04 05:20:00,17.6,15.0,30.41,NW,315,0.0,0.0,90,0.00,,,0.02,0,weatherlink.com 1.10,2013-01-04 11:20:00,
2013-01-04 05:35:00,17.4,15.0,30.41,NW,315,0.0,0.0,90,0.00,,,0.02,0,weatherlink.com 1.10,2013-01-04 11:35:00,
2013-01-04 05:50:00,17.1,14.0,30.41,NW,315,0.0,0.0,89,0.00,,,0.02,0,weatherlink.com 1.10,2013-01-04 11:50:00,
2013-01-04 06:05:00,16.9,15.0,30.41,NW,315,0.0,0.0,90,0.00,,,0.02,0,weatherlink.com 1.10,2013-01-04 12:05:00,
2013-01-04 06:20:00,16.8,14.0,30.41,NW,315,0.0,0.0,89,0.00,,,0.02,0,weatherlink.com 1.10,2013-01-04 12:20:00,
2013-01-04 06:35:00,16.7,14.0,30.41,NW,315,0.0,0.0,90,0.00,,,0.02,0,weatherlink.com 1.10,2013-01-04 12:35:00,
2013-01-04 06:50:00,16.5,14.0,30.41,NW,315,0.0,0.0,89,0.00,,,0.02,0,weatherlink.com 1.10,2013-01-04 12:50:00,
2013-01-04 07:05:00,16.2,14.0,30.41,NW,315,0.0,0.0,90,0.00,,,0.02,0,weatherlink.com 1.10,2013-01-04 13:05:00,
2013-01-04 07:20:00,16.4,14.0,30.41,NW,315,0.0,1.0,90,0.00,,,0.02,0,weatherlink.com 1.10,2013-01-04 13:20:00,
2013-01-04 07:35:00,16.6,14.0,30.41,NW,315,0.0,1.0,90,0.00,,,0.02,0,weatherlink.com 1.10,2013-01-04 13:35:00,
2013-01-04 07:50:00,16.8,14.0,30.40,NW,315,1.0,2.0,90,0.00,,,0.02,7,weatherlink.com 1.10,2013-01-04 13:50:00,
2013-01-04 08:05:00,17.1,15.0,30.40,NW,315,0.0,1.0,90,0.00,,,0.02,12,weatherlink.com 1.10,2013-01-04 14:05:00,
2013-01-04 08:20:00,17.9,16.0,30.41,NW,310,0.0,3.0,91,0.00,,,0.02,26,weatherlink.com 1.10,2013-01-04 14:20:00,
2013-01-04 08:35:00,19.4,18.0,30.40,NW,310,0.0,2.0,92,0.00,,,0.02,46,weatherlink.com 1.10,2013-01-04 14:35:00,
2013-01-04 08:50:00,21.7,20.0,30.41,NW,310,2.0,3.0,92,0.00,,,0.00,74,weatherlink.com 1.10,2013-01-04 14:50:00,
2013-01-04 09:05:00,23.7,22.0,30.41,SSW,207,1.0,9.0,92,0.00,,,0.00,105,weatherlink.com 1.10,2013-01-04 15:05:00,
2013-01-04 09:20:00,25.6,23.0,30.41,WNW,290,3.0,8.0,90,0.00,,,0.00,142,weatherlink.com 1.10,2013-01-04 15:20:00,
2013-01-04 09:35:00,27.3,24.0,30.41,SSE,153,3.0,8.0,87,0.00,,,0.00,200,weatherlink.com 1.10,2013-01-04 15:35:00,
2013-01-04 09:50:00,28.6,24.0,30.41,SSW,198,4.0,6.0,83,0.00,,,0.00,227,weatherlink.com 1.10,2013-01-04 15:50:00,
2013-01-04 10:05:00,29.8,24.0,30.41,SW,220,2.0,8.0,80,0.00,,,0.00,255,weatherlink.com 1.10,2013-01-04 16:05:00,
2013-01-04 10:20:00,31.0,26.0,30.41,South,182,1.0,9.0,83,0.00,,,0.00,297,weatherlink.com 1.10,2013-01-04 16:20:00,
2013-01-04 10:35:00,32.0,25.0,30.41,SW,218,4.0,9.0,74,0.00,,,0.00,378,weatherlink.com 1.10,2013-01-04 16:35:00,
2013-01-04 10:50:00,32.3,25.0,30.41,WSW,237,4.0,9.0,73,0.00,,,0.00,388,weatherlink.com 1.10,2013-01-04 16:50:00,
2013-01-04 11:05:00,33.6,25.0,30.41,SW,230,6.0,6.0,72,0.00,,,0.00,401,weatherlink.com 1.10,2013-01-04 17:05:00,
2013-01-04 11:21:00,34.4,26.0,30.40,SW,227,3.0,11.0,70,0.00,,,0.00,417,weatherlink.com 1.10,2013-01-04 17:21:00,
2013-01-04 11:36:00,35.1,26.0,30.40,WSW,238,2.0,9.0,69,0.00,,,0.00,432,weatherlink.com 1.10,2013-01-04 17:36:00,
2013-01-04 11:51:00,36.2,26.0,30.39,SSW,212,4.0,7.0,67,0.00,,,0.00,445,weatherlink.com 1.10,2013-01-04 17:51:00,
2013-01-04 12:06:00,37.2,27.0,30.38,SSW,205,5.0,7.0,66,0.01,,,0.01,454,weatherlink.com 1.10,2013-01-04 18:06:00,
2013-01-04 12:21:00,38.1,27.0,30.37,SSW,205,2.0,6.0,65,0.01,,,0.01,461,weatherlink.com 1.10,2013-01-04 18:21:00,
2013-01-04 12:36:00,38.6,27.0,30.36,SW,218,3.0,8.0,63,0.01,,,0.01,462,weatherlink.com 1.10,2013-01-04 18:36:00,
2013-01-04 12:51:00,40.0,28.0,30.36,SSW,209,1.0,6.0,63,0.01,,,0.01,462,weatherlink.com 1.10,2013-01-04 18:51:00,
2013-01-04 13:06:00,40.2,28.0,30.35,SSE,162,4.0,10.0,62,0.00,,,0.01,457,weatherlink.com 1.10,2013-01-04 19:06:00,
2013-01-04 13:21:00,40.2,28.0,30.34,SSW,192,4.0,9.0,62,0.00,,,0.01,450,weatherlink.com 1.10,2013-01-04 19:21:00,
2013-01-04 13:36:00,40.7,28.0,30.33,SW,215,0.0,8.0,62,0.00,,,0.01,439,weatherlink.com 1.10,2013-01-04 19:36:00,
2013-01-04 13:51:00,41.0,28.0,30.33,SW,223,4.0,7.0,61,0.01,,,0.02,425,weatherlink.com 1.10,2013-01-04 19:51:00,
2013-01-04 14:06:00,41.3,29.0,30.33,SSW,208,2.0,7.0,61,0.01,,,0.02,406,weatherlink.com 1.10,2013-01-04 20:06:00,
2013-01-04 14:21:00,41.4,29.0,30.32,SW,227,6.0,8.0,61,0.01,,,0.02,385,weatherlink.com 1.10,2013-01-04 20:21:00,
2013-01-04 14:36:00,41.3,28.0,30.32,SSW,194,4.0,8.0,60,0.01,,,0.02,362,weatherlink.com 1.10,2013-01-04 20:36:00,
2013-01-04 14:51:00,41.8,29.0,30.32,WSW,244,6.0,10.0,60,0.00,,,0.02,334,weatherlink.com 1.10,2013-01-04 20:51:00,
2013-01-04 15:06:00,41.7,29.0,30.32,South,169,1.0,8.0,60,0.00,,,0.02,304,weatherlink.com 1.10,2013-01-04 21:06:00,
2013-01-04 15:21:00,41.8,29.0,30.31,SW,215,3.0,8.0,61,0.00,,,0.02,272,weatherlink.com 1.10,2013-01-04 21:21:00,
2013-01-04 15:36:00,41.9,30.0,30.31,SSW,193,1.0,6.0,62,0.00,,,0.02,239,weatherlink.com 1.10,2013-01-04 21:36:00,
2013-01-04 15:51:00,41.5,29.0,30.31,SW,230,4.0,6.0,62,0.00,,,0.02,199,weatherlink.com 1.10,2013-01-04 21:51:00,
2013-01-04 16:06:00,41.0,29.0,30.31,South,189,1.0,4.0,63,0.00,,,0.02,149,weatherlink.com 1.10,2013-01-04 22:06:00,
2013-01-04 16:21:00,40.2,29.0,30.31,SSW,203,3.0,7.0,65,0.00,,,0.02,23,weatherlink.com 1.10,2013-01-04 22:21:00,
2013-01-04 16:36:00,39.5,29.0,30.31,SSW,198,2.0,7.0,66,0.00,,,0.02,19,weatherlink.com 1.10,2013-01-04 22:36:00,
2013-01-04 16:51:00,38.9,29.0,30.31,SSW,209,0.0,4.0,68,0.00,,,0.02,12,weatherlink.com 1.10,2013-01-04 22:51:00,
2013-01-04 17:06:00,38.1,29.0,30.31,South,181,0.0,3.0,69,0.00,,,0.02,7,weatherlink.com 1.10,2013-01-04 23:06:00,
2013-01-04 17:21:00,37.4,29.0,30.30,South,170,0.0,1.0,71,0.00,,,0.02,0,weatherlink.com 1.10,2013-01-04 23:21:00,
2013-01-04 17:36:00,36.6,28.0,30.30,South,170,0.0,1.0,72,0.00,,,0.02,0,weatherlink.com 1.10,2013-01-04 23:36:00,
2013-01-04 17:51:00,36.0,28.0,30.30,South,170,0.0,1.0,73,0.00,,,0.02,0,weatherlink.com 1.10,2013-01-04 23:51:00,
2013-01-04 18:06:00,35.6,28.0,30.31,South,170,0.0,1.0,73,0.00,,,0.02,0,weatherlink.com 1.10,2013-01-05 00:06:00,
2013-01-04 18:21:00,35.2,28.0,30.30,South,170,0.0,0.0,74,0.00,,,0.02,0,weatherlink.com 1.10,2013-01-05 00:21:00,
2013-01-04 18:36:00,34.6,27.0,30.30,South,170,0.0,0.0,74,0.00,,,0.02,0,weatherlink.com 1.10,2013-01-05 00:36:00,
2013-01-04 18:51:00,33.9,27.0,30.30,South,170,0.0,0.0,75,0.00,,,0.02,0,weatherlink.com 1.10,2013-01-05 00:51:00,
2013-01-04 19:07:00,33.2,27.0,30.30,South,170,0.0,0.0,77,0.00,,,0.02,0,weatherlink.com 1.10,2013-01-05 01:07:00,
2013-01-04 19:22:00,32.7,27.0,30.30,South,170,0.0,1.0,78,0.00,,,0.02,0,weatherlink.com 1.10,2013-01-05 01:22:00,
2013-01-04 19:37:00,32.5,27.0,30.30,South,170,0.0,3.0,79,0.00,,,0.02,0,weatherlink.com 1.10,2013-01-05 01:37:00,
2013-01-04 19:52:00,32.7,27.0,30.30,South,170,0.0,2.0,79,0.00,,,0.02,0,weatherlink.com 1.10,2013-01-05 01:52:00,
2013-01-04 20:07:00,32.4,27.0,30.29,South,170,2.0,3.0,79,0.00,,,0.02,0,weatherlink.com 1.10,2013-01-05 02:07:00,
2013-01-04 20:22:00,32.4,27.0,30.29,South,172,2.0,4.0,79,0.00,,,0.02,0,weatherlink.com 1.10,2013-01-05 02:22:00,
2013-01-04 20:37:00,32.4,27.0,30.29,South,172,0.0,3.0,79,0.00,,,0.02,0,weatherlink.com 1.10,2013-01-05 02:37:00,
2013-01-04 20:52:00,32.4,27.0,30.29,South,172,0.0,3.0,79,0.00,,,0.02,0,weatherlink.com 1.10,2013-01-05 02:52:00,
2013-01-04 21:07:00,32.3,26.0,30.28,South,172,1.0,4.0,78,0.00,,,0.02,0,weatherlink.com 1.10,2013-01-05 03:07:00,
2013-01-04 21:22:00,32.1,26.0,30.28,South,171,1.0,4.0,78,0.00,,,0.02,0,weatherlink.com 1.10,2013-01-05 03:22:00,
2013-01-04 21:37:00,32.0,26.0,30.28,South,177,3.0,5.0,78,0.00,,,0.02,0,weatherlink.com 1.10,2013-01-05 03:37:00,
2013-01-04 21:52:00,32.3,26.0,30.28,South,179,2.0,4.0,77,0.00,,,0.02,0,weatherlink.com 1.10,2013-01-05 03:52:00,
2013-01-04 22:07:00,32.4,26.0,30.27,South,186,1.0,5.0,77,0.00,,,0.02,0,weatherlink.com 1.10,2013-01-05 04:07:00,
2013-01-04 22:22:00,32.5,26.0,30.28,South,176,3.0,6.0,76,0.00,,,0.02,0,weatherlink.com 1.10,2013-01-05 04:22:00,
2013-01-04 22:37:00,32.8,26.0,30.28,South,172,2.0,6.0,75,0.00,,,0.02,0,weatherlink.com 1.10,2013-01-05 04:37:00,
2013-01-04 22:52:00,32.3,25.0,30.28,South,175,3.0,4.0,75,0.00,,,0.02,0,weatherlink.com 1.10,2013-01-05 04:52:00,
2013-01-04 23:07:00,32.1,25.0,30.28,South,184,2.0,5.0,75,0.00,,,0.02,0,weatherlink.com 1.10,2013-01-05 05:07:00,
2013-01-04 23:22:00,32.1,25.0,30.28,South,186,3.0,6.0,75,0.00,,,0.02,0,weatherlink.com 1.10,2013-01-05 05:22:00,
2013-01-04 23:37:00,31.9,25.0,30.27,South,186,1.0,4.0,75,0.00,,,0.02,0,weatherlink.com 1.10,2013-01-05 05:37:00,
2013-01-04 23:52:00,31.9,25.0,30.27,South,188,1.0,4.0,75,0.00,,,0.02,0,weatherlink.com 1.10,2013-01-05 05:52:00,